Wind_Speed
31 30 30 29 26 23 22 21 22 20 20 21 19 19 18 17 17 17 16 15 14 13 12 12 12 12 12 11 11 11 10 10 10 11 11 11 10 10 11 11 11 11 11 12
33 32 32 32 29 26 24 22 22 21 21 21 21 22 21 20 20 19 18 16 15 15 14 13 13 13 12 12 11 11 11 11 11 11 11 11 11 12 12 12 12 12 12 12
37 34 33 33 30 28 26 23 23 23 23 23 23 24 24 23 22 21 20 18 17 17 16 15 14 14 14 14 13 13 13 13 13 13 13 13 13 13 13 13 13 13 13 14
38 37 38 34 32 32 29 27 26 26 24 24 25 25 25 26 25 24 22 21 20 19 18 17 16 15 16 16 15 14 14 14 15 15 15 15 15 15 15 15 15 15 15 15
39 39 38 36 35 36 35 32 31 29 28 26 25 26 27 27 27 26 24 22 22 21 19 19 18 17 17 17 16 16 16 15 16 16 16 17 17 17 16 16 16 16 17 16
40 40 39 36 36 38 39 38 35 33 32 30 29 29 28 28 27 26 26 25 24 23 21 21 20 19 18 18 19 19 18 18 18 18 18 19 19 19 18 18 18 18 18 18
42 41 40 38 37 38 40 41 39 38 36 34 33 33 31 31 29 29 28 27 25 24 23 22 21 21 20 20 21 21 21 21 21 21 21 21 21 20 20 20 20 20 20 19
44 43 42 38 38 39 41 41 41 40 39 38 36 36 36 34 33 32 30 29 27 25 25 25 24 23 22 22 23 23 23 23 23 23 23 23 23 22 22 22 22 22 22 21
44 43 41 39 40 41 42 42 41 41 40 38 37 37 36 36 35 34 33 30 29 27 27 28 27 26 25 25 26 26 26 26 26 25 25 25 25 25 25 25 25 25 24 24
45 45 43 42 41 42 42 42 41 41 40 39 40 38 36 36 35 34 33 32 30 29 29 30 30 29 28 29 29 29 28 28 27 27 27 27 27 27 27 27 27 27 26 25
45 44 42 42 42 42 42 42 41 41 41 40 40 40 38 37 36 35 35 32 31 32 33 33 32 31 31 31 31 31 30 30 29 29 28 28 28 28 29 28 28 28 28 27
43 43 41 41 41 40 41 41 40 41 42 42 41 41 40 39 38 37 36 36 35 35 36 35 34 34 34 34 34 34 32 31 31 31 30 30 30 30 30 29 30 30 30 30
42 42 41 40 40 40 41 41 41 42 42 42 42 42 40 38 37 38 37 37 37 37 37 36 35 35 35 35 34 34 34 34 33 33 33 32 31 32 31 31 30 31 31 31
43 42 41 41 41 39 40 40 40 40 41 41 41 41 41 40 38 38 38 37 37 37 36 35 34 35 35 36 35 34 35 35 35 35 34 33 33 33 32 32 32 32 32 32
42 43 43 42 42 41 40 39 39 39 40 40 40 40 40 40 40 40 39 39 38 38 38 37 37 37 37 37 37 36 36 36 36 35 35 35 34 33 33 33 32 32 32 32
42 42 43 43 44 43 42 40 39 39 40 40 40 40 41 41 41 42 41 40 40 41 41 40 39 39 39 39 38 37 37 37 37 37 36 36 35 34 34 34 33 33 33 32
41 42 42 42 42 42 42 41 40 40 41 41 42 42 42 42 42 41 40 40 40 40 41 40 40 39 39 39 39 38 38 38 38 37 36 36 35 35 35 34 34 34 33 33
39 40 40 39 39 39 40 42 41 41 41 40 40 41 41 42 43 42 40 41 41 41 40 39 39 40 40 40 39 38 38 37 37 37 37 36 36 35 35 34 34 34 33 33
36 37 37 37 37 38 38 39 39 40 40 40 41 42 41 41 41 40 39 38 38 38 38 39 39 40 40 39 39 38 37 37 37 37 36 36 35 35 35 34 34 34 33 34
31 32 33 34 35 36 37 37 38 38 38 39 39 39 38 37 38 38 38 37 37 37 38 38 38 38 38 37 37 37 37 36 36 36 36 36 35 35 34 34 34 33 34 34
27 29 29 29 31 32 33 34 35 35 36 37 37 36 35 35 35 35 35 35 35 35 36 36 37 37 36 36 36 35 36 36 36 35 35 35 35 34 34 34 34 34 34 34
24 25 26 26 27 28 29 30 31 31 32 32 33 34 34 34 33 33 32 32 32 33 33 33 34 34 34 34 34 34 34 34 34 34 33 33 33 33 33 33 33 33 33 33
20 21 22 22 23 24 25 26 25 26 26 27 27 29 30 30 30 30 30 30 30 31 31 31 31 31 31 31 31 32 32 32 32 32 32 32 32 32 32 32 32 32 32 32
17 17 18 19 19 20 20 20 20 20 20 21 22 23 24 25 26 26 27 28 28 28 28 28 29 29 28 28 29 29 29 30 30 30 30 31 31 31 31 31 31 31 31 32
13 14 15 16 16 17 17 17 17 17 17 17 17 17 18 20 21 21 22 23 24 24 25 25 25 26 27 27 28 28 28 29 29 29 29 30 30 30 30 30 31 31 31 32
9 10 11 12 13 14 14 15 15 16 16 15 15 14 15 16 17 18 19 19 20 20 21 22 22 24 25 26 26 27 27 27 28 28 29 29 29 30 30 30 30 31 31 32
6 7 8 9 10 10 11 12 12 13 13 14 14 14 14 15 15 16 17 17 18 18 19 20 21 21 22 23 24 25 26 27 27 28 28 28 29 29 30 30 31 31 31 31
Wind_Direction
222 220 222 226 229 232 235 241 246 246 248 250 258 270 279 286 292 302 310 312 317 321 323 324 328 331 335 335 333 334 335 336 336 335 335 334 329 322 318 318 318 315 311 309
224 223 223 226 228 231 232 237 244 244 246 245 251 259 268 278 285 291 300 301 308 313 315 316 318 322 325 330 329 329 330 330 330 328 329 329 330 325 320 317 315 315 314 311
227 227 227 228 228 232 233 237 242 242 242 240 245 255 264 273 279 285 294 301 304 306 307 306 308 311 313 317 319 321 322 323 324 325 324 325 325 323 319 318 317 314 313 310
233 232 231 229 227 231 233 237 242 243 241 243 246 253 262 270 276 282 289 294 298 299 300 299 300 303 306 310 311 311 314 318 321 323 324 323 324 321 319 316 313 312 312 312
235 236 236 232 231 231 234 238 241 244 243 245 248 253 260 265 271 277 284 288 290 292 292 293 294 296 299 305 308 307 309 313 315 318 320 321 322 320 318 316 314 314 312 310
237 238 238 235 232 233 235 238 241 243 244 247 251 255 260 265 268 273 277 281 284 286 286 287 288 289 294 300 305 307 307 310 311 314 315 317 318 317 315 315 314 314 312 310
238 239 239 236 232 234 236 238 241 243 244 247 251 254 258 261 265 270 273 275 277 281 281 283 284 286 290 294 296 300 303 306 307 309 311 312 312 312 312 311 312 312 311 309
238 239 238 237 234 234 236 239 241 243 246 249 251 254 256 259 262 266 268 270 272 274 275 278 280 282 285 288 291 294 297 299 301 304 307 308 307 307 308 308 308 308 307 306
238 239 239 237 235 234 236 238 241 244 246 249 250 253 254 257 261 264 266 268 269 270 270 274 276 279 281 283 285 288 291 293 296 299 302 303 303 303 303 304 305 306 305 303
236 238 238 239 237 235 236 238 240 243 246 248 250 253 255 257 260 262 264 265 267 268 270 272 273 275 278 280 282 284 286 288 291 294 296 298 299 301 301 301 302 303 303 302
237 240 240 240 240 239 237 238 239 242 246 249 251 253 253 255 258 260 262 263 264 267 268 268 270 272 275 277 279 281 283 285 287 290 292 294 295 298 298 298 298 300 300 300
238 240 241 241 241 241 241 241 242 243 245 248 251 254 255 258 258 260 261 262 263 265 267 268 269 271 273 275 278 280 281 283 286 289 291 292 293 295 296 295 296 297 296 296
237 240 241 243 242 243 245 245 245 244 246 248 251 254 255 255 257 259 261 262 263 266 267 268 272 273 274 276 277 280 282 283 285 288 289 290 291 292 293 294 294 295 295 294
238 240 242 244 246 248 247 245 244 244 247 249 250 252 255 256 257 258 260 263 264 267 266 267 270 272 274 276 278 280 282 283 284 287 288 288 289 290 291 291 292 293 294 294
239 241 244 246 248 250 250 248 247 247 248 250 252 254 256 257 257 257 258 261 263 264 266 268 270 271 273 275 277 279 281 284 285 286 286 287 287 288 289 290 291 292 293 294
240 242 245 246 249 250 250 250 251 251 252 253 254 256 257 257 258 258 259 261 262 263 265 267 268 270 272 274 276 278 280 282 283 284 285 286 286 286 287 288 289 291 292 293
241 243 245 247 248 248 249 250 251 253 255 256 257 257 257 257 259 259 259 260 261 262 264 265 267 269 271 273 274 276 277 279 281 282 284 285 285 286 286 287 288 289 290 291
241 244 246 248 249 249 251 252 253 255 256 257 257 258 259 259 259 260 260 260 261 262 263 265 267 269 271 272 273 275 276 277 280 282 283 283 284 285 286 286 287 289 290 290
244 245 246 249 250 250 252 253 254 255 257 258 258 259 261 261 259 260 261 261 261 262 263 264 267 269 270 271 272 273 275 277 278 280 282 282 283 284 285 286 287 288 289 290
247 248 249 251 251 252 253 253 253 255 256 257 258 258 258 259 258 258 261 263 264 264 263 264 266 269 270 271 272 273 275 276 277 279 281 282 283 283 283 284 286 286 287 289
248 249 251 254 254 255 254 253 253 255 257 256 256 256 257 258 258 258 260 263 264 264 264 265 267 268 269 270 271 273 274 276 277 279 280 281 282 282 283 284 285 286 287 288
248 249 252 253 254 253 252 252 254 255 256 256 256 256 257 258 257 258 260 262 263 264 265 266 267 268 270 271 272 273 274 275 276 278 279 280 281 282 283 284 285 286 287 287
248 248 248 249 251 251 251 252 253 253 254 254 255 256 256 256 257 258 259 262 265 266 266 266 267 269 270 271 272 274 275 275 276 277 278 279 280 281 283 283 284 286 288 288
244 243 244 246 247 249 249 250 251 252 254 254 254 254 255 255 256 260 262 264 266 266 267 268 269 270 272 273 274 275 275 275 275 277 278 280 281 282 283 284 286 287 287 288
241 244 244 245 245 246 248 250 250 251 253 253 253 253 253 255 259 262 263 263 264 266 268 270 269 270 271 272 273 274 275 276 276 276 277 280 281 282 283 285 286 286 287 289
237 242 246 246 245 246 248 249 251 252 249 249 251 255 258 259 261 261 262 263 266 269 270 270 270 271 273 274 275 276 277 277 277 277 279 280 281 282 284 286 287 287 288 288
239 245 248 248 245 244 243 245 251 253 251 250 253 257 260 262 264 266 266 268 271 273 274 272 272 274 276 277 277 278 278 278 279 279 279 281 283 285 287 288 288 288 288 288
Height
5881 5886 5888 5891 5893 5895 5897 5898 5899 5901 5902 5904 5905 5905 5905 5905 5906 5906 5906 5905 5904 5902 5901 5900 5898 5896 5894 5892 5891 5889 5887 5885 5884 5882 5880 5878 5876 5874 5872 5871 5870 5868 5866 5865
5874 5879 5882 5885 5888 5890 5892 5893 5894 5895 5897 5899 5900 5900 5901 5901 5901 5902 5902 5901 5900 5900 5898 5897 5896 5894 5893 5891 5889 5887 5885 5883 5881 5880 5878 5876 5874 5872 5870 5869 5867 5865 5863 5861
5867 5872 5875 5879 5883 5885 5886 5886 5887 5889 5892 5893 5894 5895 5896 5896 5897 5898 5898 5898 5897 5896 5895 5894 5893 5891 5890 5888 5887 5885 5883 5881 5879 5877 5875 5873 5871 5869 5868 5866 5864 5862 5860 5858
5860 5865 5868 5876 5877 5878 5879 5880 5882 5883 5885 5887 5888 5890 5891 5892 5893 5893 5894 5894 5893 5892 5891 5890 5889 5888 5887 5885 5883 5882 5880 5878 5876 5874 5872 5870 5868 5866 5864 5862 5861 5858 5856 5854
5852 5856 5860 5866 5869 5870 5872 5874 5875 5877 5879 5881 5882 5884 5885 5887 5888 5888 5889 5889 5889 5888 5887 5886 5885 5884 5883 5881 5879 5878 5877 5875 5873 5871 5869 5867 5865 5863 5861 5859 5857 5855 5852 5850
5843 5847 5851 5858 5861 5862 5866 5867 5869 5871 5873 5875 5876 5878 5880 5881 5882 5883 5884 5884 5884 5883 5882 5881 5880 5880 5879 5877 5876 5874 5873 5871 5869 5867 5865 5863 5861 5859 5857 5854 5852 5850 5848 5846
5834 5837 5842 5848 5852 5855 5858 5860 5862 5863 5865 5868 5870 5872 5874 5875 5876 5877 5877 5878 5878 5877 5877 5876 5875 5874 5874 5873 5871 5870 5868 5866 5865 5863 5861 5859 5857 5854 5852 5850 5848 5845 5843 5841
5825 5828 5835 5839 5843 5846 5848 5851 5853 5855 5858 5860 5863 5865 5866 5868 5869 5870 5870 5871 5871 5871 5870 5870 5869 5868 5868 5867 5866 5864 5863 5861 5859 5858 5856 5854 5852 5849 5847 5845 5842 5840 5838 5836
5816 5821 5825 5828 5832 5836 5839 5842 5845 5847 5850 5852 5854 5856 5859 5860 5861 5862 5863 5863 5863 5863 5863 5863 5862 5861 5861 5861 5860 5858 5857 5855 5853 5852 5850 5848 5846 5844 5841 5839 5836 5834 5832 5829
5806 5809 5814 5819 5823 5826 5830 5833 5836 5839 5842 5844 5846 5848 5850 5852 5852 5852 5853 5854 5855 5855 5855 5855 5854 5854 5854 5853 5852 5851 5849 5848 5846 5845 5843 5841 5839 5837 5835 5832 5830 5827 5825 5823
5796 5800 5805 5809 5813 5817 5821 5824 5827 5830 5833 5835 5837 5839 5841 5843 5843 5844 5844 5844 5845 5846 5846 5846 5846 5846 5845 5845 5844 5843 5841 5840 5839 5837 5836 5834 5832 5830 5828 5825 5823 5821 5818 5816
5787 5792 5796 5800 5803 5808 5811 5814 5818 5821 5823 5826 5827 5829 5831 5833 5834 5835 5835 5836 5837 5837 5837 5836 5836 5836 5837 5836 5835 5834 5833 5832 5830 5829 5827 5826 5824 5822 5819 5817 5815 5813 5810 5808
5779 5782 5786 5790 5794 5797 5801 5804 5807 5810 5813 5815 5817 5819 5820 5821 5823 5824 5825 5827 5828 5828 5827 5827 5827 5827 5827 5826 5825 5825 5824 5823 5821 5820 5819 5817 5815 5813 5811 5809 5807 5805 5802 5800
5770 5773 5777 5781 5784 5787 5790 5793 5795 5798 5802 5805 5807 5808 5810 5811 5812 5814 5815 5816 5817 5817 5817 5817 5817 5817 5817 5817 5816 5816 5815 5813 5812 5811 5809 5808 5806 5804 5802 5800 5798 5796 5793 5791
5760 5764 5768 5772 5775 5778 5780 5782 5785 5788 5791 5793 5795 5797 5799 5800 5801 5802 5804 5805 5806 5807 5807 5807 5808 5808 5807 5807 5806 5806 5805 5804 5802 5801 5800 5798 5797 5795 5793 5791 5789 5787 5784 5782
5751 5754 5758 5761 5764 5766 5768 5771 5774 5777 5780 5782 5784 5786 5788 5789 5789 5791 5792 5794 5795 5796 5796 5797 5798 5798 5797 5797 5796 5796 5795 5794 5793 5791 5790 5788 5787 5785 5783 5781 5779 5777 5775 5773
5743 5746 5748 5751 5754 5756 5758 5760 5763 5766 5769 5771 5773 5775 5776 5777 5779 5780 5781 5782 5783 5784 5785 5786 5786 5787 5787 5786 5786 5785 5785 5784 5783 5781 5780 5778 5777 5775 5773 5771 5769 5767 5765 5763
5733 5736 5738 5741 5744 5746 5748 5750 5753 5755 5757 5759 5761 5762 5764 5766 5767 5768 5769 5770 5771 5772 5774 5774 5775 5775 5775 5775 5775 5774 5774 5773 5772 5771 5770 5768 5767 5765 5763 5761 5759 5757 5755 5753
5724 5726 5729 5731 5733 5736 5738 5740 5742 5744 5746 5748 5749 5751 5752 5753 5755 5756 5756 5757 5759 5761 5762 5763 5763 5763 5763 5763 5763 5763 5762 5762 5761 5760 5759 5757 5756 5754 5753 5751 5749 5747 5745 5743
5714 5716 5719 5721 5723 5725 5727 5729 5731 5733 5735 5736 5737 5739 5741 5742 5743 5744 5745 5747 5748 5749 5750 5751 5752 5752 5752 5752 5752 5752 5751 5751 5750 5749 5748 5747 5745 5744 5742 5740 5739 5737 5735 5732
5706 5708 5710 5711 5713 5715 5716 5718 5721 5723 5724 5725 5726 5728 5730 5731 5732 5734 5735 5737 5738 5738 5739 5740 5741 5741 5741 5741 5741 5741 5740 5740 5739 5738 5737 5736 5735 5733 5732 5730 5728 5727 5724 5722
5699 5701 5702 5704 5705 5706 5707 5709 5711 5713 5714 5715 5716 5718 5720 5721 5723 5724 5725 5727 5728 5728 5729 5730 5730 5730 5730 5731 5731 5730 5730 5729 5728 5727 5726 5725 5724 5723 5721 5720 5718 5716 5714 5711
5692 5694 5695 5697 5698 5699 5700 5701 5703 5704 5705 5706 5707 5709 5710 5712 5714 5715 5716 5717 5718 5719 5719 5720 5720 5720 5720 5720 5720 5719 5719 5718 5718 5717 5716 5715 5714 5712 5711 5709 5707 5706 5704 5701
5686 5688 5689 5691 5692 5693 5693 5694 5695 5696 5698 5699 5700 5701 5703 5704 5705 5707 5708 5708 5709 5709 5710 5710 5710 5710 5710 5710 5710 5709 5709 5708 5708 5707 5706 5705 5703 5702 5700 5699 5697 5695 5693 5691
5681 5683 5684 5685 5686 5687 5688 5688 5689 5691 5692 5693 5694 5695 5696 5697 5698 5699 5700 5700 5701 5701 5701 5701 5701 5701 5701 5701 5701 5700 5699 5699 5698 5697 5696 5695 5694 5692 5691 5689 5687 5685 5683 5681
5678 5679 5680 5680 5681 5682 5683 5684 5685 5685 5687 5688 5689 5690 5690 5691 5692 5692 5693 5693 5693 5693 5693 5693 5693 5693 5693 5692 5692 5691 5690 5689 5689 5688 5686 5685 5684 5683 5681 5679 5677 5675 5673 5671
5675 5676 5677 5677 5678 5678 5679 5680 5681 5682 5682 5683 5684 5685 5686 5686 5686 5687 5687 5687 5687 5687 5687 5686 5686 5686 5685 5685 5684 5683 5682 5681 5680 5679 5678 5676 5675 5673 5671 5669 5667 5665 5663 5661